When you browse on this site, cookies collect data to enhance your experience and personalize the content and advertising you see.
Visit our Privacy Policy to learn more. By continuing to use the site, you agree to this use of cookies and data.
  • In Hungary
  • List of Countries
  • For 7 days
  • Water Temperature
  • Satellite Maps
  • Weather Map
  • News
  • Weather Widgets
  • user-avatar
    Login

    Hourly Weather Bintulu

    Today, 21 January, Monday

    Time Temperature Precipitation Wind Pressure Humidity
    00:00 +27°C° 1.2 mm 4 mps 756 mmHg 95%
    01:00 +27°C° 1.2 mm 4 mps 756 mmHg 95%
    02:00 +27°C° 0 mm 4 mps 756 mmHg 96%
    03:00 +27°C° 1.4 mm 4 mps 756 mmHg 96%
    04:00 +27°C° 1.4 mm 4 mps 756 mmHg 96%
    05:00 +26°C° 1.4 mm 4 mps 756 mmHg 95%
    06:00 +27°C° 1.3 mm 4 mps 756 mmHg 95%
    07:00 +27°C° 1.3 mm 4 mps 756 mmHg 94%
    08:00 +27°C° 0 mm 3 mps 757 mmHg 93%
    09:00 +28°C° 0.3 mm 3 mps 757 mmHg 90%
    10:00 +29°C° 0.3 mm 3 mps 757 mmHg 88%
    11:00 +29°C° 0.3 mm 3 mps 757 mmHg 85%
    12:00 +29°C° 0.6 mm 2 mps 757 mmHg 87%
    13:00 +29°C° 0.6 mm 2 mps 756 mmHg 89%
    14:00 +29°C° 0 mm 2 mps 756 mmHg 91%
    15:00 +28°C° 0.4 mm 2 mps 756 mmHg 92%
    16:00 +28°C° 0.4 mm 2 mps 756 mmHg 93%
    17:00 +28°C° 0.4 mm 2 mps 755 mmHg 94%
    18:00 +28°C° 0 mm 2 mps 756 mmHg 95%
    19:00 +27°C° 0 mm 2 mps 756 mmHg 95%
    20:00 +27°C° 0 mm 2 mps 756 mmHg 96%
    21:00 +27°C° 0.1 mm 2 mps 757 mmHg 96%
    22:00 +27°C° 0.1 mm 2 mps 757 mmHg 95%
    23:00 +27°C° 0.1 mm 2 mps 757 mmHg 95%

    Tomorrow, 22 January, Tuesday

    Time Temperature Precipitation Wind Pressure Humidity
    00:00 +27°C° 0.2 mm 2 mps 757 mmHg 95%
    01:00 +27°C° 0.2 mm 2 mps 757 mmHg 95%
    02:00 +26°C° 0.2 mm 2 mps 757 mmHg 95%
    03:00 +26°C° 0.3 mm 1 mps 757 mmHg 96%
    04:00 +26°C° 0.3 mm 1 mps 757 mmHg 96%
    05:00 +26°C° 0.3 mm 1 mps 756 mmHg 96%
    06:00 +26°C° 0 mm 1 mps 757 mmHg 96%
    07:00 +26°C° 0 mm 1 mps 757 mmHg 95%
    08:00 +27°C° 0 mm 1 mps 757 mmHg 95%
    09:00 +27°C° 0 mm 1 mps 757 mmHg 92%
    10:00 +28°C° 0 mm 1 mps 757 mmHg 89%
    11:00 +29°C° 0 mm 2 mps 757 mmHg 85%
    12:00 +29°C° 0 mm 2 mps 757 mmHg 81%
    13:00 +30°C° 0 mm 1 mps 757 mmHg 76%
    14:00 +31°C° 0 mm 1 mps 756 mmHg 72%
    15:00 +30°C° 0 mm 1 mps 756 mmHg 76%
    16:00 +29°C° 0 mm 1 mps 755 mmHg 80%
    17:00 +29°C° 0 mm 1 mps 755 mmHg 84%
    18:00 +28°C° 0 mm 1 mps 755 mmHg 86%
    19:00 +28°C° 0 mm 1 mps 756 mmHg 89%
    20:00 +27°C° 0 mm 1 mps 756 mmHg 91%
    21:00 +27°C° 0 mm 1 mps 757 mmHg 91%
    22:00 +27°C° 0 mm 1 mps 757 mmHg 92%
    23:00 +26°C° 0 mm 1 mps 757 mmHg 93%

    Day after tomorrow, 23 January, Wednesday

    Time Temperature Precipitation Wind Pressure Humidity
    00:00 +26°C° 0.2 mm 1 mps 757 mmHg 93%
    01:00 +26°C° 0.2 mm 1 mps 757 mmHg 94%
    02:00 +26°C° 0.2 mm 1 mps 757 mmHg 95%
    03:00 +26°C° 0.4 mm 1 mps 756 mmHg 95%
    04:00 +26°C° 0.4 mm 1 mps 756 mmHg 95%
    05:00 +25°C° 0.4 mm 1 mps 756 mmHg 95%
    06:00 +26°C° 0.4 mm 1 mps 756 mmHg 94%
    07:00 +26°C° 0.4 mm 1 mps 757 mmHg 92%
    08:00 +26°C° 0.4 mm 1 mps 757 mmHg 91%
    09:00 +27°C° 0.6 mm 1 mps 757 mmHg 88%
    10:00 +28°C° 0.6 mm 1 mps 758 mmHg 84%
    11:00 +29°C° 0.6 mm 1 mps 758 mmHg 81%
    12:00 +29°C° 0.9 mm 1 mps 757 mmHg 81%
    13:00 +29°C° 0.9 mm 1 mps 756 mmHg 81%
    14:00 +29°C° 0.9 mm 1 mps 756 mmHg 81%
    15:00 +29°C° 1.7 mm 1 mps 755 mmHg 85%
    16:00 +28°C° 1.7 mm 1 mps 755 mmHg 89%
    17:00 +28°C° 1.7 mm 2 mps 755 mmHg 93%
    18:00 +27°C° 1.9 mm 2 mps 756 mmHg 94%
    19:00 +27°C° 1.9 mm 2 mps 756 mmHg 95%
    20:00 +26°C° 1.9 mm 2 mps 757 mmHg 96%
    21:00 +26°C° 1.7 mm 2 mps 757 mmHg 96%
    22:00 +26°C° 1.7 mm 1 mps 758 mmHg 96%
    23:00 +26°C° 1.7 mm 1 mps 758 mmHg 96%

    24 January, Thursday

    Time Temperature Precipitation Wind Pressure Humidity
    00:00 +26°C° 0.8 mm 1 mps 758 mmHg 97%
    01:00 +26°C° 0.8 mm 1 mps 757 mmHg 97%
    02:00 +25°C° 0.8 mm 1 mps 757 mmHg 97%
    03:00 +25°C° 0.4 mm 1 mps 756 mmHg 97%
    04:00 +25°C° 0.4 mm 1 mps 756 mmHg 98%
    05:00 +25°C° 0.4 mm 1 mps 756 mmHg 98%
    06:00 +26°C° 0.1 mm 1 mps 756 mmHg 96%
    07:00 +26°C° 0.1 mm 1 mps 757 mmHg 95%
    08:00 +26°C° 0.1 mm 1 mps 757 mmHg 94%
    09:00 +29°C° 0 mm 1 mps 757 mmHg 84%
    10:00 +31°C° 0 mm 1 mps 758 mmHg 74%
    11:00 +33°C° 0 mm 1 mps 758 mmHg 64%
    12:00 +33°C° 0 mm 1 mps 757 mmHg 64%
    13:00 +34°C° 0 mm 2 mps 756 mmHg 64%
    14:00 +34°C° 0 mm 3 mps 755 mmHg 64%
    15:00 +33°C° 0.6 mm 3 mps 755 mmHg 72%
    16:00 +31°C° 0.6 mm 3 mps 755 mmHg 79%
    17:00 +29°C° 0.6 mm 3 mps 755 mmHg 86%
    18:00 +29°C° 0.7 mm 3 mps 755 mmHg 89%
    19:00 +28°C° 0.7 mm 2 mps 756 mmHg 93%
    20:00 +27°C° 0.7 mm 2 mps 757 mmHg 96%
    21:00 +27°C° 2.1 mm 2 mps 757 mmHg 96%
    22:00 +27°C° 2.1 mm 2 mps 758 mmHg 96%
    23:00 +27°C° 2.1 mm 2 mps 758 mmHg 96%

    25 January, Friday

    Time Temperature Precipitation Wind Pressure Humidity
    00:00 +27°C° 2.1 mm 2 mps 757 mmHg 96%
    01:00 +26°C° 2.1 mm 1 mps 757 mmHg 96%
    02:00 +26°C° 2.1 mm 1 mps 756 mmHg 96%
    03:00 +26°C° 0.6 mm 1 mps 756 mmHg 97%
    04:00 +26°C° 0.6 mm 1 mps 756 mmHg 97%
    05:00 +26°C° 0.6 mm 1 mps 756 mmHg 97%
    06:00 +26°C° 0 mm 1 mps 756 mmHg 96%
    07:00 +27°C° 0 mm 1 mps 757 mmHg 95%
    08:00 +27°C° 0 mm 1 mps 757 mmHg 95%
    09:00 +29°C° 0 mm 1 mps 757 mmHg 87%
    10:00 +30°C° 0 mm 1 mps 757 mmHg 79%
    11:00 +32°C° 0 mm 1 mps 757 mmHg 72%
    12:00 +32°C° 0 mm 2 mps 757 mmHg 69%
    13:00 +34°C° 0 mm 2 mps 756 mmHg 67%
    14:00 +34°C° 0 mm 2 mps 755 mmHg 65%
    15:00 +32°C° 0.2 mm 2 mps 755 mmHg 71%
    16:00 +31°C° 0.2 mm 2 mps 755 mmHg 77%
    17:00 +30°C° 0.2 mm 2 mps 755 mmHg 83%
    18:00 +29°C° 0 mm 2 mps 755 mmHg 86%
    19:00 +28°C° 0 mm 2 mps 756 mmHg 88%
    20:00 +28°C° 0 mm 2 mps 757 mmHg 91%
    21:00 +27°C° 1.2 mm 1 mps 757 mmHg 93%
    22:00 +27°C° 1.2 mm 1 mps 757 mmHg 95%
    23:00 +27°C° 1.2 mm 1 mps 758 mmHg 96%

    26 January, Saturday

    Time Temperature Precipitation Wind Pressure Humidity
    00:00 +27°C° 1.3 mm 1 mps 757 mmHg 96%
    01:00 +27°C° 1.3 mm 1 mps 757 mmHg 96%
    02:00 +27°C° 1.3 mm 1 mps 756 mmHg 96%
    03:00 +26°C° 0.3 mm 1 mps 756 mmHg 96%
    04:00 +26°C° 0.3 mm 1 mps 756 mmHg 97%
    05:00 +26°C° 0.3 mm 1 mps 756 mmHg 97%
    06:00 +26°C° 0.5 mm 1 mps 756 mmHg 97%
    07:00 +27°C° 0.5 mm 1 mps 757 mmHg 96%
    08:00 +27°C° 0.5 mm 1 mps 757 mmHg 95%
    09:00 +26°C° 0.5 mm 0 mps 757 mmHg 90%
    10:00 +28°C° 0.5 mm 0 mps 757 mmHg 85%
    11:00 +29°C° 0.5 mm 0 mps 757 mmHg 79%
    12:00 +31°C° 0.7 mm 1 mps 757 mmHg 80%
    13:00 +31°C° 0.7 mm 1 mps 756 mmHg 81%
    14:00 +31°C° 0.7 mm 1 mps 755 mmHg 83%
    15:00 +30°C° 0.9 mm 2 mps 755 mmHg 85%
    16:00 +30°C° 0.9 mm 2 mps 755 mmHg 86%
    17:00 +29°C° 0.9 mm 2 mps 755 mmHg 88%
    18:00 +29°C° 0.2 mm 2 mps 755 mmHg 91%
    19:00 +28°C° 0.2 mm 2 mps 756 mmHg 93%
    20:00 +27°C° 0.2 mm 1 mps 757 mmHg 95%
    21:00 +27°C° 1.2 mm 1 mps 757 mmHg 95%
    22:00 +27°C° 1.2 mm 1 mps 757 mmHg 96%
    23:00 +27°C° 1.2 mm 1 mps 758 mmHg 97%
    Show more